Location: Astronomy Club of Akron Observatory
(40.9700°N, 81.5606°W)
Time: 17:24:48
(UTC-04:00)

ATLAS 2AS CENTAUR R/B - Visible Passes

Search period start: 31 October 2014 00:00
Search period end: 09 November 2014 23:00
Orbit: 917 x 1296 km, 63.7° (Epoch: 19 October)

Date Brightness Start Highest point End Pass type
(mag) Time Alt. Az. Time Alt. Az. Time Alt. Az.
31 Oct 5.3 03:10:31 14° NNE 03:10:31 14° NNE 03:14:13 10° NE visible
31 Oct 4.5 04:58:00 14° NNW 05:03:58 32° NE 05:10:58 10° E visible
31 Oct 3.1 06:47:41 10° NW 06:55:47 76° WSW 07:03:34 10° SSE visible
31 Oct 4.3 20:39:46 10° S 20:41:43 19° SSE 20:41:43 19° SSE visible
01 Nov 5.6 02:27:47 10° NNE 02:27:47 10° NNE 02:27:49 10° NNE visible
01 Nov 4.8 04:15:16 19° N 04:18:37 25° NNE 04:24:55 10° E visible
01 Nov 3.2 06:02:53 10° NNW 06:11:01 76° NE 06:18:53 10° SE visible
01 Nov 4.1 19:56:39 10° SSE 19:59:48 19° SE 19:59:48 19° SE visible
01 Nov 4.3 21:44:38 10° SW 21:47:21 26° SW 21:47:21 26° SW visible
02 Nov 5.0 02:32:40 19° NNE 02:33:06 19° NNE 02:38:35 10° ENE visible
02 Nov 3.7 04:20:10 19° NNW 04:26:06 54° NE 04:33:47 10° SE visible
02 Nov 3.5 06:09:38 10° NW 06:16:57 39° WSW 06:24:00 10° S visible
02 Nov 4.4 18:15:06 10° ESE 18:17:34 12° E 18:17:52 12° E visible
02 Nov 3.1 20:00:02 10° SSW 20:05:24 55° S 20:05:24 55° S visible
02 Nov 5.2 21:52:18 10° W 21:52:57 13° W 21:52:57 13° W visible
03 Nov 5.4 01:50:12 14° NE 01:50:12 14° NE 01:52:02 10° NE visible
03 Nov 4.1 03:37:43 28° N 03:41:00 39° NE 03:48:19 10° ESE visible
03 Nov 3.1 05:25:14 13° NW 05:32:27 60° WSW 05:40:03 10° SSE visible
03 Nov 3.1 19:15:54 10° S 19:22:30 46° ESE 19:23:23 44° E visible
03 Nov 4.2 21:06:42 10° WSW 21:10:55 33° W 21:10:55 33° W visible
04 Nov 4.5 02:55:25 29° NNE 02:55:45 29° NE 03:02:29 10° E visible
04 Nov 3.0 04:42:57 28° NW 04:47:47 87° WSW 04:55:38 10° SSE visible
04 Nov 4.3 06:32:37 10° WNW 06:37:43 19° WSW 06:42:43 10° SW visible
04 Nov 3.6 18:32:19 10° SSE 18:38:08 29° ESE 18:41:14 22° ENE visible
04 Nov 3.2 20:21:28 10° SW 20:28:33 63° NW 20:28:46 63° NW visible
04 Nov 5.4 22:15:51 10° WNW 22:16:17 11° WNW 22:16:17 11° WNW visible
05 Nov 5.1 02:13:17 18° ENE 02:13:17 18° ENE 02:16:18 10° ENE visible
05 Nov 3.3 04:00:49 50° N 04:02:58 66° NE 04:10:47 10° SE visible
05 Nov 3.8 05:48:21 16° WNW 05:53:28 30° WSW 05:59:58 10° SSW visible
05 Nov 4.2 17:49:37 10° SE 17:53:56 17° ESE 17:58:27 10° ENE visible
05 Nov 2.8 19:36:38 10° SSW 19:43:44 89° ESE 19:46:29 44° NE visible
05 Nov 4.7 21:29:43 10° W 21:33:59 24° NW 21:33:59 24° NW visible
06 Nov 3.9 03:18:48 46° ENE 03:18:48 46° ENE 03:25:32 10° ESE visible
06 Nov 3.3 05:06:21 35° WNW 05:09:03 47° WSW 05:16:23 10° S visible
06 Nov 2.9 18:52:13 10° SSW 18:59:06 60° ESE 19:04:03 23° NE visible
06 Nov 4.1 20:43:54 10° WSW 20:50:32 36° NW 20:51:33 35° NNW visible
07 Nov 4.9 02:36:53 22° E 02:36:53 22° E 02:39:55 10° ESE visible
07 Nov 2.9 04:24:26 70° WSW 04:24:30 70° WSW 04:32:14 10° SSE visible
07 Nov 4.5 06:11:59 12° W 06:14:06 13° W 06:17:26 10° SW visible
07 Nov 3.4 18:08:16 10° S 18:14:38 38° ESE 18:21:28 10° NE visible
07 Nov 3.6 19:58:27 10° WSW 20:05:25 50° NW 20:08:57 31° N visible
07 Nov 5.1 21:53:32 10° WNW 21:56:26 16° NW 21:56:26 16° NW visible
08 Nov 3.7 03:42:34 46° SE 03:42:34 46° SE 03:47:38 10° SE visible
08 Nov 4.0 05:30:07 23° WSW 05:30:07 23° WSW 05:35:39 10° SSW visible
08 Nov 3.0 19:13:23 10° SW 19:20:30 73° NW 19:26:13 20° NNE visible
08 Nov 4.7 21:07:15 10° W 21:12:57 23° NNW 21:13:42 23° NNW visible
09 Nov 4.9 03:00:42 19° ESE 03:00:42 19° ESE 03:02:37 10° SE visible
09 Nov 3.9 04:48:15 29° SSW 04:48:15 29° SSW 04:52:30 10° S visible
09 Nov 2.8 18:28:42 10° SSW 18:35:45 77° ESE 18:43:23 11° NE visible
09 Nov 4.4 20:21:14 10° W 20:27:34 30° NW 20:30:51 23° N visible
09 Nov 5.5 22:17:44 10° NW 22:18:19 11° NW 22:18:19 11° NW visible
